Regional Weather Roundup
Issued by NWS Charleston, WV

Home | Current Version | Previous Version | Graphics & Text | Print | Product List | Glossary On
Versions: 1 2 3 4 5 6 7 8 9 10 11 12 13 14 15 16 17 18 19 20 21 22 23 24 25 26 27 28 29 30 31 32 33 34 35 36 37 38 39 40 41 42 43 44 45 46 47 48 49
000
ASUS41 KRLX 020910
RWRRLX
West Virginia Regional Weather Roundup
National Weather Service Charleston WV
500 AM EDT THU OCT 02 2014

Note: "fair" indicates few or no clouds below 12,000 feet with no
significant weather and/or obstructions to visibility.

WVZ003-021000-
Northern Panhandle of West Virginia

CITY           SKY/WX    TMP DP  RH WIND       PRES   REMARKS
WHEELING       FOG       50  48  93 CALM      30.07R VSB 1/4
$$

WVZ009-021000-
Northwest West Virginia

CITY           SKY/WX    TMP DP  RH WIND       PRES   REMARKS
PARKERSBURG    FOG       49  48  97 CALM      30.09R VSB 1/4
$$

WVZ006-021000-
Western West Virginia

CITY           SKY/WX    TMP DP  RH WIND       PRES   REMARKS
HUNTINGTON     FOG       54  54 100 CALM      30.04R VSB 1/4
$$

WVZ015-021000-
West Central West Virginia

CITY           SKY/WX    TMP DP  RH WIND       PRES   REMARKS
CHARLESTON     FOG       55  54  96 CALM      30.05S VSB 1/4
$$

WVZ031-021000-
North Central West Virginia

CITY           SKY/WX    TMP DP  RH WIND       PRES   REMARKS
CLARKSBURG     FOG       49  49 100 CALM      30.08R VSB 1/4
MORGANTOWN     FOG       51  47  86 CALM      30.09S VSB 3/4
$$

WVZ035-042-045-021000-
South Central West Virginia

CITY           SKY/WX    TMP DP  RH WIND       PRES   REMARKS
BECKLEY        CLEAR     53  50  89 CALM      30.12R
BLUEFIELD      CLEAR     58  51  78 CALM      30.14R
LEWISBURG      FOG       49  48  93 CALM      30.13R VSB<1/4
$$

WVZ047-021000-
Northern Mountains of West Virginia

CITY           SKY/WX    TMP DP  RH WIND       PRES   REMARKS
ELKINS         FOG       50  50 100 CALM      30.12R VSB 1/4
$$

WVZ052-021000-
Eastern Panhandle of West Virginia

CITY           SKY/WX    TMP DP  RH WIND       PRES   REMARKS
MARTINSBURG    CLOUDY    59  55  87 CALM      30.10R FOG
PETERSBURG     CLOUDY   N/A N/A N/A CALM      30.10R HAZE
$$


USA.gov is the U.S. government's official web portal to all federal, state and local government web resources and services.